2018-094E (43714 NORAD) Tracking and Keplerian Element Data

This shows tracking and keplerian element data for the satellite.

Feedback or suggestion? Click here.




ElementValue
Catalog43714
Name2018-094E
Epoch Orbit440
Epoch Day352.88755829
Epoch Year2018
RAAN357.3819
Inclination97.4077
Eccentricity0.0013313
Argument of Perigee157.6281
Mean Anonmoly301.751
Mean Motion15.23194296
Decay Rate3.33E-06
L11 43714U 18094E 18352.88755829 .00000333 00000-0 17030-4 0 9996
L22 43714 97.4077 357.3819 0013313 157.6281 301.7510 15.23194296 4409

Live tracking and technical data element details for 2018-094E (NORAD 43714). 2018-094E can be tracked NOW for your location showing map with azimuth and elevation plus other details from your city location.

Track the satellite on the map from your city or location and see movement details for azimuth, elevation, latitude, longitude, range, height, and movement on the map or in text.







IsCatalogInMostPopularTable: catalog: 43714, numindb: 104
Update: records affected: 1



GetName: 43714 2018-094E

Hit Count: updated at: Sun, 21 Jul 2019 14:41:23 GMT